[[{"header":{"parameterUnit":"m.s-1","parameterCategory":1,"la1":30.2992,"la2":30.254,"lo1":-89.0895,"lo2":-89.0443,"dy":0.0025,"dx":0.0025,"nx":19,"ny":19,"refTime":"2026-04-19T09:00:00:Z","depth":0,"parameterNumber":2,"parameterNumberName":"U-component_of_WINDS"},"data":[0,0,0,-3.292,-3.292,-3.2907,-3.2907,-3.2915,-3.2915,0,0,0,0,0,0,0,0,0,0,0,-3.2939,-3.2939,-3.292,-3.292,-3.2907,-3.2907,-3.2915,-3.2915,0,0,0,0,0,0,0,0,0,0,0,-3.2938,-3.2939,-3.294,-3.292,-3.2907,-3.2907,-3.2915,-3.2916,0,0,0,0,0,0,0,0,0,0,-3.2924,-3.2956,-3.2939,-3.294,-3.292,-3.2907,-3.2907,-3.2915,-3.2916,-3.2931,0,-3.2949,0,-3.2932,-3.2917,-3.2917,0,0,0,-3.2909,-3.2956,-3.2939,-3.294,-3.292,-3.2907,-3.291,-3.2915,-3.2916,-3.2932,-3.2949,-3.2949,-3.2933,-3.2917,-3.2918,-3.3044,-3.3046,0,0,-3.2909,-3.2945,-3.2939,-3.294,-3.2944,-3.291,-3.291,-3.2915,-3.2936,-3.2949,-3.2948,-3.2933,-3.2918,-3.2918,-3.3043,-3.3045,0,0,0,-3.2919,-3.2946,-3.2928,-3.294,-3.2936,-3.291,-3.2909,-3.2936,-3.2927,-3.2948,-3.2933,-3.2918,-3.2918,-3.3042,-3.3044,-3.3134,0,0,0,-3.2919,-3.2951,-3.2929,-3.295,-3.2937,-3.2936,-3.2931,-3.2927,-3.2926,-3.2933,-3.2918,-3.2918,-3.3041,-3.3043,-3.3129,-3.3172,0,0,0,-3.2934,-3.2953,-3.2956,-3.2952,-3.2948,-3.2935,-3.2926,-3.2926,-3.2918,-3.2917,-3.2919,-3.304,-3.3043,-3.3124,-3.3164,-3.3216,0,0,0,-3.2961,-3.3037,-3.2958,-3.3036,-3.2948,-3.2991,-3.2926,-3.2956,-3.2966,-3.2918,-3.3041,-3.3044,-3.3123,-3.3159,-3.3211,-3.3267,-3.3293,0,0,-3.3076,-3.3052,-3.3094,-3.3024,-3.309,-3.299,-3.3068,-3.3045,-3.3012,-3.3035,-3.3038,-3.3131,-3.3163,-3.3215,-3.3425,-3.3447,0,0,0,-3.3143,-3.3174,-3.3184,-3.3196,-3.3179,-3.3168,-3.3129,-3.3119,-3.3137,-3.3031,-3.3162,-3.318,-3.3209,-3.3234,-3.3252,-3.3275,-3.3056,-3.3056,-3.3056,-3.3357,-3.3311,-3.3379,-3.3332,-3.3344,-3.3301,-3.3307,-3.3287,-3.3237,-3.3269,-3.3276,-3.341,-3.344,-3.3453,-3.3478,-3.33,-3.3301,-3.3301,-3.3301,-3.3522,-3.356,-3.3491,-3.3532,-3.3483,-3.3517,-3.3478,-3.3442,-3.3466,-3.34,-3.3423,-3.3357,-3.3478,-3.3497,-3.3308,-3.3307,-3.3306,-3.3305,-3.3305,-3.3659,-3.3669,-3.3656,-3.3667,-3.3681,-3.3629,-3.3656,-3.3609,-3.3566,-3.3588,-3.3591,-3.359,-3.3583,-3.3593,-3.3593,-3.3594,-3.3594,-3.3594,-3.3595,-3.3807,-3.3789,-3.3817,-3.3805,-3.3806,-3.3801,-3.3758,-3.3757,-3.3745,-3.3709,-3.3709,-3.3656,-3.3498,-3.346,-3.3602,-3.36,-3.36,-3.3599,-3.3598,-3.3994,-3.3944,-3.3988,-3.3989,-3.397,-3.3987,-3.3926,-3.3928,-3.3921,-3.3936,-3.3877,-3.3767,-3.3739,-3.3725,-3.3693,-3.3886,-3.3886,-3.3886,-3.3886,-3.4111,-3.4091,-3.4125,-3.413,-3.4128,-3.4078,-3.4128,-3.4095,-3.4052,-3.4045,-3.4009,-3.3963,-3.395,-3.3929,-3.391,-3.388,-3.4117,-3.4117,-3.4117,-3.4224,-3.4202,-3.4255,-3.4212,-3.4193,-3.4178,-3.4224,-3.4232,-3.4173,-3.4126,-3.4038,-3.4028,-3.3952,-3.393,-3.3883,-3.3855,-3.3798,0,0]},{"header":{"parameterUnit":"m.s-1","parameterCategory":1,"la1":30.2992,"la2":30.254,"lo1":-89.0895,"lo2":-89.0443,"dy":0.0025,"dx":0.0025,"nx":19,"ny":19,"refTime":"2026-04-19T09:00:00:Z","depth":0,"parameterNumber":3,"parameterNumberName":"V-component_of_WINDS"},"data":[0,0,0,-6.1773,-6.1775,-6.188,-6.188,-6.2018,-6.2019,0,0,0,0,0,0,0,0,0,0,0,-6.1746,-6.1747,-6.1772,-6.1775,-6.188,-6.188,-6.2018,-6.2019,0,0,0,0,0,0,0,0,0,0,0,-6.1745,-6.1747,-6.1748,-6.1776,-6.188,-6.188,-6.2017,-6.1936,0,0,0,0,0,0,0,0,0,0,-6.1834,-6.1814,-6.1746,-6.1748,-6.1776,-6.188,-6.188,-6.1932,-6.1941,-6.1973,0,-6.2004,0,-6.2014,-6.2029,-6.2029,0,0,0,-6.1771,-6.1807,-6.1831,-6.1748,-6.1777,-6.1879,-6.1831,-6.1937,-6.1948,-6.1985,-6.2006,-6.2011,-6.2016,-6.203,-6.2031,-6.2231,-6.2232,0,0,-6.1765,-6.1766,-6.1824,-6.1838,-6.1825,-6.1828,-6.1835,-6.1943,-6.1965,-6.2006,-6.2014,-6.2019,-6.2031,-6.2032,-6.223,-6.2231,0,0,0,-6.1751,-6.1763,-6.1784,-6.1833,-6.1851,-6.1831,-6.1839,-6.196,-6.1968,-6.2015,-6.202,-6.2032,-6.2033,-6.2228,-6.223,-6.2289,0,0,0,-6.1748,-6.1754,-6.1782,-6.1784,-6.185,-6.1908,-6.1854,-6.196,-6.1972,-6.2019,-6.2032,-6.2035,-6.2227,-6.2229,-6.2285,-6.2316,0,0,0,-6.1737,-6.1753,-6.177,-6.1784,-6.1829,-6.1906,-6.1919,-6.1963,-6.1976,-6.2029,-6.2035,-6.2226,-6.2229,-6.2281,-6.231,-6.2371,0,0,0,-6.1726,-6.1819,-6.1771,-6.1876,-6.1828,-6.1942,-6.1918,-6.2002,-6.2055,-6.2032,-6.2227,-6.223,-6.228,-6.2306,-6.2367,-6.2423,-6.2446,0,0,-6.1844,-6.1833,-6.1895,-6.1855,-6.1979,-6.1926,-6.2057,-6.2102,-6.2105,-6.2188,-6.2193,-6.2286,-6.2309,-6.237,-6.2575,-6.2594,0,0,0,-6.1933,-6.1977,-6.2009,-6.2062,-6.2101,-6.2137,-6.2163,-6.218,-6.2251,-6.2149,-6.2324,-6.2337,-6.2373,-6.2399,-6.2415,-6.2446,-6.2242,-6.2242,-6.2242,-6.21,-6.2101,-6.2204,-6.2217,-6.2268,-6.2295,-6.2336,-6.2363,-6.2346,-6.2387,-6.2413,-6.2537,-6.2569,-6.2581,-6.2613,-6.2441,-6.2441,-6.2442,-6.2442,-6.2274,-6.2338,-6.2316,-6.2408,-6.2407,-6.2483,-6.2513,-6.2499,-6.2569,-6.2518,-6.2549,-6.2495,-6.2601,-6.2629,-6.2446,-6.2445,-6.2445,-6.2444,-6.2444,-6.2385,-6.2416,-6.2437,-6.2513,-6.2571,-6.258,-6.265,-6.2645,-6.2641,-6.2672,-6.2699,-6.2698,-6.2697,-6.2685,-6.2686,-6.2686,-6.2686,-6.2687,-6.2687,-6.2492,-6.2514,-6.2575,-6.2625,-6.2659,-6.2702,-6.273,-6.2763,-6.2797,-6.2788,-6.2788,-6.2768,-6.2612,-6.2573,-6.2694,-6.2693,-6.2692,-6.2691,-6.2691,-6.267,-6.2629,-6.2723,-6.2757,-6.2816,-6.2875,-6.2869,-6.2935,-6.296,-6.2995,-6.2968,-6.2853,-6.2841,-6.2828,-6.2797,-6.2968,-6.2968,-6.2968,-6.2968,-6.2764,-6.2758,-6.2854,-6.2909,-6.2962,-6.2966,-6.3071,-6.3093,-6.311,-6.3126,-6.31,-6.3057,-6.3044,-6.304,-6.3022,-6.2993,-6.321,-6.321,-6.321,-6.2874,-6.2873,-6.2964,-6.2983,-6.3029,-6.3068,-6.3166,-6.3228,-6.3238,-6.322,-6.3138,-6.3128,-6.3058,-6.3035,-6.3016,-6.2989,-6.2935,0,0]}]]